Moosic, PA

7:12 PM EST on February 14, 2016 (GMT -0500)
Wilkes-Barre-Scranton International

Weather History for KAVP - February, 2013

Change the Weather History Date:

Sunday, February 3, 2013

  Actual Average Record
Temperature  
Mean Temperature 23 °F 27 °F  
Max Temperature 29 °F 34 °F 57 °F (1991)
Min Temperature 16 °F 19 °F -5 °F (1961)
Degree Days  
Heating Degree Days 42 38  
Month to date heating degree days 134 115  
Since 1 July heating degree days 3351 3706  
Cooling Degree Days 0 0  
Month to date cooling degree days 0 0  
Year to date cooling degree days 0 0  
Moisture  
Dew Point 16 °F    
Average Humidity 71    
Maximum Humidity 92    
Minimum Humidity 50    
Precipitation  
Precipitation 0.01 in 0.08 in 1.10 in (2004)
Month to date precipitation 0.02 0.24  
Year to date precipitation 2.04 2.61  
Sea Level Pressure  
Sea Level Pressure 29.84 in    
Wind  
Wind Speed 4 mph (WSW)    
Max Wind Speed 18 mph    
Max Gust Speed 25 mph    
Visibility 7 miles    
Events Snow    
T = Trace of Precipitation, MM = Missing Value Source: NWS Daily Summary

Daily Weather History Graph

Daily Weather History Graph

Search for Another Location

Airport or City:

Trip Planner

Search our weather history database for the weather conditions in past years. The results will help you decide how hot, cold, wet, or windy it might be!

Date:

Astronomy

Feb. 03, 2013 Rise Set
Actual Time 7:11 AM EST 5:22 PM EST
Civil Twilight 6:42 AM EST 5:51 PM EST
Nautical Twilight 6:09 AM EST 6:24 PM EST
Astronomical Twilight 5:37 AM EST 6:56 PM EST
Moon 12:37 AM EST (2/3) 10:57 AM EST (2/3)
Length of Visible Light 11h 08m
Length of Day
10h 10m
Waning Gibbous, 49% of the Moon is Illuminated
Feb 3
Waning Gibbous
Feb 10
New
Feb 17
First Quarter
Feb 25
Full
Mar 4
Last Quarter

Hourly Weather History & Observations

Time (EST) Temp. Windchill Dew Point Humidity Pressure Visibility Wind Dir Wind Speed Gust Speed Precip Events Conditions
12:54 AM 19.0 °F - 16.0 °F 88% 29.99 in 5.0 mi Calm Calm - N/A   Overcast
1:54 AM 19.0 °F - 16.0 °F 88% 29.98 in 5.0 mi Calm Calm - N/A   Overcast
2:07 AM 19.4 °F - 15.8 °F 86% 29.93 in 6.0 mi Calm Calm - N/A   Overcast
2:54 AM 19.0 °F - 16.0 °F 88% 29.96 in 6.0 mi Calm Calm - N/A   Overcast
3:34 AM 19.4 °F - 15.8 °F 86% 29.90 in 5.0 mi Calm Calm - 0.00 in   Overcast
3:54 AM 19.9 °F - 16.0 °F 85% 29.93 in 6.0 mi Calm Calm - 0.00 in   Overcast
4:22 AM 19.4 °F - 15.8 °F 86% 29.89 in 6.0 mi Calm Calm - N/A   Overcast
4:54 AM 19.0 °F - 16.0 °F 88% 29.92 in 6.0 mi Calm Calm - N/A   Overcast
5:54 AM 17.1 °F - 14.0 °F 88% 29.91 in 6.0 mi Calm Calm - N/A   Overcast
6:54 AM 17.1 °F - 14.0 °F 88% 29.91 in 6.0 mi Calm Calm - N/A   Overcast
7:54 AM 18.0 °F - 15.1 °F 88% 29.91 in 6.0 mi Calm Calm - N/A   Overcast
8:54 AM 21.0 °F - 16.0 °F 81% 29.92 in 7.0 mi Calm Calm - N/A   Overcast
9:54 AM 21.9 °F - 17.1 °F 82% 29.91 in 7.0 mi Calm Calm - N/A   Overcast
10:24 AM 23.0 °F 18.4 °F 17.6 °F 80% 29.86 in 8.0 mi North 3.5 mph - N/A   Overcast
10:54 AM 24.1 °F - 17.1 °F 75% 29.88 in 8.0 mi Calm Calm - N/A   Overcast
11:08 AM 24.8 °F 20.5 °F 17.6 °F 74% 29.84 in 8.0 mi North 3.5 mph - N/A   Overcast
11:54 AM 25.0 °F - 16.0 °F 69% 29.86 in 10.0 mi Calm Calm - N/A   Mostly Cloudy
12:05 PM 26.6 °F - 15.8 °F 64% 29.81 in 10.0 mi Calm Calm - N/A   Mostly Cloudy
12:36 PM 26.6 °F - 15.8 °F 64% 29.79 in 10.0 mi Calm Calm - N/A   Mostly Cloudy
12:54 PM 28.0 °F - 15.1 °F 58% 29.81 in 10.0 mi Calm Calm - N/A   Mostly Cloudy
1:16 PM 26.6 °F 22.6 °F 15.8 °F 64% 29.77 in 10.0 mi Variable 3.5 mph - 0.01 in   Scattered Clouds
1:54 PM 28.0 °F 22.8 °F 12.0 °F 51% 29.78 in 10.0 mi SW 4.6 mph - 0.01 in   Scattered Clouds
2:54 PM 28.9 °F 21.9 °F 12.0 °F 49% 29.78 in 10.0 mi WSW 6.9 mph - N/A   Overcast
3:54 PM 27.0 °F 19.5 °F 12.0 °F 53% 29.78 in 10.0 mi South 6.9 mph - N/A   Overcast
4:54 PM 27.0 °F 18.0 °F 14.0 °F 58% 29.77 in 10.0 mi WSW 9.2 mph - N/A   Overcast
5:54 PM 26.1 °F 18.4 °F 12.9 °F 58% 29.77 in 10.0 mi WSW 6.9 mph - N/A   Scattered Clouds
6:54 PM 25.0 °F 18.1 °F 15.1 °F 66% 29.78 in 10.0 mi SW 5.8 mph - N/A   Mostly Cloudy
7:54 PM 25.0 °F 18.1 °F 17.1 °F 72% 29.78 in 10.0 mi SW 5.8 mph - N/A   Overcast
8:40 PM 24.8 °F 15.3 °F 19.4 °F 80% 29.75 in 3.0 mi SW 9.2 mph - 0.00 in Snow Light Snow
8:54 PM 25.0 °F 14.8 °F 19.0 °F 78% 29.78 in 7.0 mi WSW 10.4 mph - 0.00 in   Overcast
9:03 PM 24.8 °F 15.3 °F 19.4 °F 80% 29.75 in 9.0 mi SW 9.2 mph - N/A   Overcast
9:33 PM 24.8 °F 15.3 °F 19.4 °F 80% 29.76 in 2.5 mi West 9.2 mph - 0.00 in Snow Light Snow
9:44 PM 24.8 °F 15.3 °F 21.2 °F 86% 29.76 in 2.0 mi West 9.2 mph 17.3 mph 0.00 in Snow Light Snow
9:54 PM 24.1 °F 12.5 °F 19.9 °F 84% 29.80 in 1.5 mi West 12.7 mph - 0.00 in Snow Light Snow
9:59 PM 24.8 °F 13.4 °F 19.4 °F 80% 29.76 in 3.0 mi West 12.7 mph - 0.00 in Snow Light Snow
10:09 PM 24.8 °F 11.5 °F 15.8 °F 69% 29.77 in 9.0 mi West 17.3 mph 21.9 mph 0.00 in   Overcast
10:54 PM 23.0 °F 10.6 °F 12.2 °F 63% 29.78 in 10.0 mi West 13.8 mph 25.3 mph N/A   Overcast
11:54 PM 21.9 °F 9.8 °F 10.9 °F 63% 29.84 in 9.0 mi WNW 12.7 mph 20.7 mph 0.00 in   Overcast